Time,TemperatureF,DewpointF,PressureIn,WindDirection,WindDirectionDegrees,WindSpeedMPH,WindSpeedGustMPH,Humidity,HourlyPrecipIn,Conditions,Clouds,dailyrainin,SoftwareType,DateUTC
2013-04-18 00:00:00,63.9,58.0,30.21,ESE,112,1.0,4.0,81,0.00,,SKC,0.00,VWS V13.00,2013-04-18 04:00:00,
2013-04-18 00:01:00,63.9,58.0,30.21,ESE,112,1.0,4.0,81,0.00,,SKC,0.00,VWS V13.00,2013-04-18 04:01:00,
2013-04-18 00:02:00,63.9,58.0,30.21,ESE,112,0.0,1.0,81,0.00,,SKC,0.00,VWS V13.00,2013-04-18 04:02:00,
2013-04-18 00:07:00,63.8,57.9,30.21,ESE,112,0.0,1.0,81,0.00,,SKC,0.00,VWS V13.00,2013-04-18 04:07:00,
2013-04-18 00:12:00,63.8,57.9,30.21,ESE,112,0.0,4.0,81,0.00,,SKC,0.00,VWS V13.00,2013-04-18 04:12:00,
2013-04-18 00:17:00,63.6,57.7,30.21,ESE,111,2.0,4.0,81,0.00,,SKC,0.00,VWS V13.00,2013-04-18 04:17:00,
2013-04-18 00:22:00,63.5,57.6,30.21,ESE,110,1.0,1.0,81,0.00,,SKC,0.00,VWS V13.00,2013-04-18 04:22:00,
2013-04-18 00:27:00,63.3,57.4,30.21,ESE,110,0.0,1.0,81,0.00,,SKC,0.00,VWS V13.00,2013-04-18 04:27:00,
2013-04-18 00:32:00,63.2,57.6,30.21,ENE,76,3.0,5.0,82,0.00,,SKC,0.00,VWS V13.00,2013-04-18 04:32:00,
2013-04-18 00:37:00,63.1,57.2,30.21,East,96,1.0,2.0,81,0.00,,SKC,0.00,VWS V13.00,2013-04-18 04:37:00,
2013-04-18 00:42:00,63.1,57.2,30.21,East,89,3.0,6.0,81,0.00,,SKC,0.00,VWS V13.00,2013-04-18 04:42:00,
2013-04-18 00:47:00,63.2,57.3,30.22,ENE,74,2.0,4.0,81,0.00,,SKC,0.00,VWS V13.00,2013-04-18 04:47:00,
2013-04-18 00:52:00,63.1,57.2,30.22,East,82,4.0,4.0,81,0.00,,SKC,0.00,VWS V13.00,2013-04-18 04:52:00,
2013-04-18 00:57:00,63.1,57.5,30.21,East,82,2.0,2.0,82,0.00,,SKC,0.00,VWS V13.00,2013-04-18 04:57:00,
2013-04-18 01:02:00,63.1,57.5,30.21,East,90,2.0,4.0,82,0.00,,SKC,0.00,VWS V13.00,2013-04-18 05:02:00,
2013-04-18 01:07:00,63.1,57.5,30.21,East,94,1.0,4.0,82,0.00,,SKC,0.00,VWS V13.00,2013-04-18 05:07:00,
2013-04-18 01:12:00,63.1,57.5,30.21,East,94,4.0,4.0,82,0.00,,SKC,0.00,VWS V13.00,2013-04-18 05:12:00,
2013-04-18 01:17:00,63.2,57.6,30.21,East,85,1.0,3.0,82,0.00,,SKC,0.00,VWS V13.00,2013-04-18 05:17:00,
2013-04-18 01:22:00,63.3,57.7,30.21,East,95,4.0,4.0,82,0.00,,SKC,0.00,VWS V13.00,2013-04-18 05:22:00,
2013-04-18 01:27:00,63.4,57.8,30.21,East,101,4.0,4.0,82,0.00,,SKC,0.00,VWS V13.00,2013-04-18 05:27:00,
2013-04-18 01:32:00,63.4,57.8,30.20,ESE,105,1.0,5.0,82,0.00,,SKC,0.00,VWS V13.00,2013-04-18 05:32:00,
2013-04-18 01:37:00,63.5,57.9,30.20,ESE,109,5.0,6.0,82,0.00,,SKC,0.00,VWS V13.00,2013-04-18 05:37:00,
2013-04-18 01:42:00,63.5,57.9,30.20,ESE,103,6.0,6.0,82,0.00,,SKC,0.00,VWS V13.00,2013-04-18 05:42:00,
2013-04-18 01:47:00,63.6,58.0,30.20,ESE,106,2.0,5.0,82,0.00,,SKC,0.00,VWS V13.00,2013-04-18 05:47:00,
2013-04-18 01:52:00,63.7,58.1,30.20,ESE,110,4.0,5.0,82,0.00,,SKC,0.00,VWS V13.00,2013-04-18 05:52:00,
2013-04-18 01:57:00,63.7,58.1,30.20,ESE,105,5.0,6.0,82,0.00,,SKC,0.00,VWS V13.00,2013-04-18 05:57:00,
2013-04-18 02:02:00,63.6,58.0,30.20,ESE,105,5.0,6.0,82,0.00,,SKC,0.00,VWS V13.00,2013-04-18 06:02:00,
2013-04-18 02:07:00,63.7,58.1,30.19,ESE,108,2.0,5.0,82,0.00,,SKC,0.00,VWS V13.00,2013-04-18 06:07:00,
2013-04-18 02:12:00,63.7,58.1,30.19,SE,126,4.0,5.0,82,0.00,,SKC,0.00,VWS V13.00,2013-04-18 06:12:00,
2013-04-18 02:17:00,63.7,58.1,30.19,East,99,5.0,5.0,82,0.00,,SKC,0.00,VWS V13.00,2013-04-18 06:17:00,
2013-04-18 02:22:00,63.7,58.1,30.19,East,101,2.0,6.0,82,0.00,,SKC,0.00,VWS V13.00,2013-04-18 06:22:00,
2013-04-18 02:27:00,63.8,58.2,30.19,ESE,105,2.0,5.0,82,0.00,,SKC,0.00,VWS V13.00,2013-04-18 06:27:00,
2013-04-18 02:32:00,63.7,58.1,30.18,ESE,105,4.0,6.0,82,0.00,,SKC,0.00,VWS V13.00,2013-04-18 06:32:00,
2013-04-18 02:37:00,63.8,58.2,30.18,ESE,103,2.0,6.0,82,0.00,,SKC,0.00,VWS V13.00,2013-04-18 06:37:00,
2013-04-18 02:42:00,63.8,58.2,30.18,ESE,103,4.0,6.0,82,0.00,,SKC,0.00,VWS V13.00,2013-04-18 06:42:00,
2013-04-18 02:47:00,63.8,58.2,30.18,ESE,104,2.0,4.0,82,0.00,,SKC,0.00,VWS V13.00,2013-04-18 06:47:00,
2013-04-18 02:52:00,63.7,58.1,30.18,ESE,105,4.0,5.0,82,0.00,,SKC,0.00,VWS V13.00,2013-04-18 06:52:00,
2013-04-18 02:57:00,63.7,58.1,30.18,ESE,106,5.0,5.0,82,0.00,,SKC,0.00,VWS V13.00,2013-04-18 06:57:00,
2013-04-18 03:02:00,63.6,58.0,30.18,ESE,122,2.0,6.0,82,0.00,,SKC,0.00,VWS V13.00,2013-04-18 07:02:00,
2013-04-18 03:07:00,63.5,57.9,30.18,SE,131,2.0,4.0,82,0.00,,SKC,0.00,VWS V13.00,2013-04-18 07:07:00,
2013-04-18 03:12:00,63.6,58.0,30.18,ESE,116,1.0,6.0,82,0.00,,SKC,0.00,VWS V13.00,2013-04-18 07:12:00,
2013-04-18 03:17:00,63.5,57.9,30.17,ESE,120,2.0,5.0,82,0.00,,SKC,0.00,VWS V13.00,2013-04-18 07:17:00,
2013-04-18 03:22:00,63.4,57.8,30.17,ESE,120,4.0,4.0,82,0.00,,SKC,0.00,VWS V13.00,2013-04-18 07:22:00,
2013-04-18 03:27:00,63.4,57.8,30.17,ESE,122,4.0,5.0,82,0.00,,SKC,0.00,VWS V13.00,2013-04-18 07:27:00,
2013-04-18 03:32:00,63.4,57.8,30.17,ESE,117,2.0,6.0,82,0.00,,SKC,0.00,VWS V13.00,2013-04-18 07:32:00,
2013-04-18 03:37:00,63.3,57.7,30.18,ESE,123,2.0,4.0,82,0.00,,SKC,0.00,VWS V13.00,2013-04-18 07:37:00,
2013-04-18 03:42:00,63.3,57.7,30.18,ESE,106,2.0,4.0,82,0.00,,SKC,0.00,VWS V13.00,2013-04-18 07:42:00,
2013-04-18 03:47:00,63.3,57.7,30.18,ENE,78,2.0,5.0,82,0.00,,SKC,0.00,VWS V13.00,2013-04-18 07:47:00,
2013-04-18 03:52:00,63.2,57.6,30.17,East,98,0.0,2.0,82,0.00,,SKC,0.00,VWS V13.00,2013-04-18 07:52:00,
2013-04-18 03:57:00,63.2,57.6,30.18,ESE,117,1.0,2.0,82,0.00,,SKC,0.00,VWS V13.00,2013-04-18 07:57:00,
2013-04-18 04:02:00,63.1,57.5,30.18,East,92,1.0,2.0,82,0.00,,SKC,0.00,VWS V13.00,2013-04-18 08:02:00,
2013-04-18 04:07:00,62.9,57.3,30.18,ESE,103,1.0,2.0,82,0.00,,SKC,0.00,VWS V13.00,2013-04-18 08:07:00,
2013-04-18 04:12:00,62.8,57.2,30.18,ESE,103,0.0,0.0,82,0.00,,SKC,0.00,VWS V13.00,2013-04-18 08:12:00,
2013-04-18 04:17:00,62.6,57.0,30.18,ESE,103,0.0,1.0,82,0.00,,SKC,0.00,VWS V13.00,2013-04-18 08:17:00,
2013-04-18 04:22:00,62.4,56.8,30.18,East,85,0.0,1.0,82,0.00,,SKC,0.00,VWS V13.00,2013-04-18 08:22:00,
2013-04-18 04:27:00,62.2,56.6,30.18,East,85,3.0,3.0,82,0.00,,SKC,0.00,VWS V13.00,2013-04-18 08:27:00,
2013-04-18 04:32:00,62.1,56.5,30.18,East,86,1.0,1.0,82,0.00,,SKC,0.00,VWS V13.00,2013-04-18 08:32:00,
2013-04-18 04:37:00,62.0,56.5,30.18,East,96,5.0,7.0,82,0.00,,SKC,0.00,VWS V13.00,2013-04-18 08:37:00,
2013-04-18 04:42:00,62.0,56.8,30.18,ESE,103,0.0,2.0,83,0.00,,SKC,0.00,VWS V13.00,2013-04-18 08:42:00,
2013-04-18 04:47:00,62.1,56.9,30.18,East,96,0.0,1.0,83,0.00,,SKC,0.00,VWS V13.00,2013-04-18 08:47:00,
2013-04-18 04:52:00,62.0,56.8,30.18,East,85,1.0,1.0,83,0.00,,SKC,0.00,VWS V13.00,2013-04-18 08:52:00,
2013-04-18 04:57:00,61.9,56.7,30.18,East,84,1.0,2.0,83,0.00,,SKC,0.00,VWS V13.00,2013-04-18 08:57:00,
2013-04-18 05:02:00,61.8,56.6,30.18,East,84,2.0,2.0,83,0.00,,SKC,0.00,VWS V13.00,2013-04-18 09:02:00,
2013-04-18 05:07:00,61.7,56.2,30.18,ENE,76,0.0,2.0,82,0.00,,SKC,0.00,VWS V13.00,2013-04-18 09:07:00,
2013-04-18 05:12:00,61.6,56.1,30.18,ENE,76,2.0,2.0,82,0.00,,SKC,0.00,VWS V13.00,2013-04-18 09:12:00,
2013-04-18 05:17:00,61.5,56.0,30.18,ENE,76,2.0,2.0,82,0.00,,SKC,0.00,VWS V13.00,2013-04-18 09:17:00,
2013-04-18 05:22:00,61.4,55.9,30.18,ENE,76,2.0,2.0,82,0.00,,SKC,0.00,VWS V13.00,2013-04-18 09:22:00,
2013-04-18 05:27:00,61.3,56.1,30.19,ENE,76,0.0,1.0,83,0.00,,SKC,0.00,VWS V13.00,2013-04-18 09:27:00,
2013-04-18 05:32:00,61.3,56.1,30.19,ENE,76,2.0,3.0,83,0.00,,SKC,0.00,VWS V13.00,2013-04-18 09:32:00,
2013-04-18 05:37:00,61.3,56.1,30.18,ENE,76,2.0,3.0,83,0.00,,SKC,0.00,VWS V13.00,2013-04-18 09:37:00,
2013-04-18 05:42:00,61.4,56.2,30.18,ENE,71,3.0,3.0,83,0.00,,SKC,0.00,VWS V13.00,2013-04-18 09:42:00,
2013-04-18 05:47:00,61.6,56.4,30.18,East,79,2.0,2.0,83,0.00,,SKC,0.00,VWS V13.00,2013-04-18 09:47:00,
2013-04-18 05:52:00,61.7,56.5,30.18,East,96,1.0,1.0,83,0.00,,SKC,0.00,VWS V13.00,2013-04-18 09:52:00,
2013-04-18 05:57:00,61.7,56.5,30.18,East,96,2.0,4.0,83,0.00,,SKC,0.00,VWS V13.00,2013-04-18 09:57:00,
2013-04-18 06:02:00,61.9,56.7,30.19,East,90,2.0,2.0,83,0.00,,SKC,0.00,VWS V13.00,2013-04-18 10:02:00,
2013-04-18 06:07:00,61.9,56.7,30.19,East,83,2.0,3.0,83,0.00,,SKC,0.00,VWS V13.00,2013-04-18 10:07:00,
2013-04-18 06:12:00,61.9,56.7,30.19,East,83,2.0,2.0,83,0.00,,SKC,0.00,VWS V13.00,2013-04-18 10:12:00,
2013-04-18 06:17:00,61.9,56.7,30.19,East,83,2.0,2.0,83,0.00,,SKC,0.00,VWS V13.00,2013-04-18 10:17:00,
2013-04-18 06:22:00,61.8,56.6,30.19,East,83,1.0,2.0,83,0.00,,SKC,0.00,VWS V13.00,2013-04-18 10:22:00,
2013-04-18 06:27:00,61.8,56.6,30.19,East,90,5.0,5.0,83,0.01,,SKC,0.01,VWS V13.00,2013-04-18 10:27:00,
2013-04-18 06:32:00,61.8,56.6,30.20,East,90,2.0,4.0,83,0.01,,SKC,0.01,VWS V13.00,2013-04-18 10:32:00,
2013-04-18 06:37:00,62.0,56.8,30.20,East,93,4.0,4.0,83,0.01,,SKC,0.01,VWS V13.00,2013-04-18 10:37:00,
2013-04-18 06:42:00,62.3,57.1,30.20,East,94,2.0,4.0,83,0.01,,SKC,0.01,VWS V13.00,2013-04-18 10:42:00,
2013-04-18 06:47:00,62.6,57.4,30.20,East,80,3.0,4.0,83,0.01,,SKC,0.01,VWS V13.00,2013-04-18 10:47:00,
2013-04-18 06:52:00,62.8,57.6,30.20,East,79,3.0,3.0,83,0.01,,SKC,0.01,VWS V13.00,2013-04-18 10:52:00,
2013-04-18 06:57:00,62.9,57.7,30.20,ENE,78,1.0,2.0,83,0.01,,SKC,0.01,VWS V13.00,2013-04-18 10:57:00,
2013-04-18 07:02:00,63.1,57.9,30.21,East,98,2.0,5.0,83,0.01,,SKC,0.01,VWS V13.00,2013-04-18 11:02:00,
2013-04-18 07:07:00,63.2,58.0,30.21,East,98,4.0,4.0,83,0.01,,SKC,0.01,VWS V13.00,2013-04-18 11:07:00,
2013-04-18 07:12:00,63.5,58.2,30.21,ESE,117,7.0,7.0,83,0.01,,SKC,0.01,VWS V13.00,2013-04-18 11:12:00,
2013-04-18 07:17:00,63.7,58.5,30.21,ESE,105,6.0,7.0,83,0.01,,SKC,0.01,VWS V13.00,2013-04-18 11:17:00,
2013-04-18 07:22:00,63.9,58.6,30.21,East,96,2.0,7.0,83,0.01,,SKC,0.01,VWS V13.00,2013-04-18 11:22:00,
2013-04-18 07:27:00,64.2,58.9,30.21,SE,126,5.0,8.0,83,0.01,,SKC,0.01,VWS V13.00,2013-04-18 11:27:00,
2013-04-18 07:32:00,64.4,59.1,30.21,ESE,113,4.0,4.0,83,0.00,,SKC,0.01,VWS V13.00,2013-04-18 11:32:00,
2013-04-18 07:37:00,64.6,59.3,30.21,East,86,5.0,5.0,83,0.00,,SKC,0.01,VWS V13.00,2013-04-18 11:37:00,
2013-04-18 07:42:00,64.8,59.5,30.21,East,91,5.0,6.0,83,0.00,,SKC,0.01,VWS V13.00,2013-04-18 11:42:00,
2013-04-18 07:47:00,65.0,59.7,30.22,East,93,6.0,6.0,83,0.00,,SKC,0.01,VWS V13.00,2013-04-18 11:47:00,
2013-04-18 07:52:00,65.1,59.8,30.22,East,95,9.0,9.0,83,0.00,,SKC,0.01,VWS V13.00,2013-04-18 11:52:00,
2013-04-18 07:57:00,65.2,59.9,30.22,ESE,106,5.0,6.0,83,0.00,,SKC,0.01,VWS V13.00,2013-04-18 11:57:00,
2013-04-18 08:02:00,65.3,60.0,30.22,East,94,4.0,7.0,83,0.00,,SKC,0.01,VWS V13.00,2013-04-18 12:02:00,
2013-04-18 08:07:00,65.4,60.1,30.22,SE,135,5.0,5.0,83,0.00,,SKC,0.01,VWS V13.00,2013-04-18 12:07:00,
2013-04-18 08:12:00,65.5,60.2,30.22,ESE,119,6.0,7.0,83,0.00,,SKC,0.01,VWS V13.00,2013-04-18 12:12:00,
2013-04-18 08:17:00,65.6,60.3,30.22,ESE,114,6.0,9.0,83,0.00,,SKC,0.01,VWS V13.00,2013-04-18 12:17:00,
2013-04-18 08:22:00,65.7,60.4,30.22,ESE,123,9.0,9.0,83,0.00,,SKC,0.01,VWS V13.00,2013-04-18 12:22:00,
2013-04-18 08:27:00,65.8,60.5,30.22,ESE,104,6.0,8.0,83,0.00,,SKC,0.01,VWS V13.00,2013-04-18 12:27:00,
2013-04-18 08:32:00,65.9,60.6,30.22,ESE,112,12.0,12.0,83,0.00,,SKC,0.01,VWS V13.00,2013-04-18 12:32:00,
2013-04-18 08:37:00,66.1,60.8,30.22,ESE,120,8.0,9.0,83,0.00,,SKC,0.01,VWS V13.00,2013-04-18 12:37:00,
2013-04-18 08:42:00,66.1,60.8,30.22,East,94,5.0,8.0,83,0.00,,SKC,0.01,VWS V13.00,2013-04-18 12:42:00,
2013-04-18 08:47:00,66.2,60.9,30.22,SE,126,7.0,9.0,83,0.00,,SKC,0.01,VWS V13.00,2013-04-18 12:47:00,
2013-04-18 08:52:00,66.4,61.1,30.22,SE,134,7.0,11.0,83,0.00,,SKC,0.01,VWS V13.00,2013-04-18 12:52:00,
2013-04-18 08:57:00,66.6,61.3,30.22,ESE,103,6.0,7.0,83,0.00,,SKC,0.01,VWS V13.00,2013-04-18 12:57:00,
2013-04-18 09:02:00,66.7,61.4,30.23,ESE,117,7.0,7.0,83,0.00,,SKC,0.01,VWS V13.00,2013-04-18 13:02:00,
2013-04-18 09:07:00,66.9,61.6,30.23,ESE,104,9.0,11.0,83,0.00,,SKC,0.01,VWS V13.00,2013-04-18 13:07:00,
2013-04-18 09:12:00,67.0,61.7,30.23,East,101,8.0,9.0,83,0.00,,SKC,0.01,VWS V13.00,2013-04-18 13:12:00,
2013-04-18 09:17:00,67.2,61.5,30.23,ESE,102,5.0,8.0,82,0.00,,SKC,0.01,VWS V13.00,2013-04-18 13:17:00,
2013-04-18 09:22:00,67.4,62.1,30.23,ESE,121,2.0,5.0,83,0.00,,SKC,0.01,VWS V13.00,2013-04-18 13:22:00,
2013-04-18 09:27:00,67.6,61.9,30.22,ESE,116,5.0,7.0,82,0.00,,SKC,0.01,VWS V13.00,2013-04-18 13:27:00,
2013-04-18 09:32:00,67.8,62.1,30.23,ESE,110,8.0,9.0,82,0.00,,SKC,0.01,VWS V13.00,2013-04-18 13:32:00,
2013-04-18 09:37:00,68.0,62.3,30.23,ESE,119,7.0,9.0,82,0.00,,SKC,0.01,VWS V13.00,2013-04-18 13:37:00,
2013-04-18 09:42:00,68.2,62.5,30.23,ESE,119,5.0,7.0,82,0.00,,SKC,0.01,VWS V13.00,2013-04-18 13:42:00,
2013-04-18 09:47:00,68.5,62.8,30.23,ESE,115,8.0,8.0,82,0.00,,SKC,0.01,VWS V13.00,2013-04-18 13:47:00,
2013-04-18 09:52:00,68.6,62.9,30.23,East,92,5.0,5.0,82,0.00,,SKC,0.01,VWS V13.00,2013-04-18 13:52:00,
2013-04-18 09:57:00,68.7,63.0,30.23,East,96,4.0,5.0,82,0.00,,SKC,0.01,VWS V13.00,2013-04-18 13:57:00,
2013-04-18 10:02:00,68.9,63.2,30.23,ESE,110,8.0,9.0,82,0.00,,SKC,0.01,VWS V13.00,2013-04-18 14:02:00,
2013-04-18 10:07:00,68.8,63.1,30.24,ESE,118,8.0,12.0,82,0.00,,SKC,0.01,VWS V13.00,2013-04-18 14:07:00,
2013-04-18 10:12:00,68.7,63.0,30.23,SE,142,5.0,9.0,82,0.00,,SKC,0.01,VWS V13.00,2013-04-18 14:12:00,
2013-04-18 10:17:00,68.8,63.1,30.23,ESE,116,5.0,11.0,82,0.00,,SKC,0.01,VWS V13.00,2013-04-18 14:17:00,
2013-04-18 10:22:00,69.1,63.4,30.23,ESE,121,8.0,12.0,82,0.00,,SKC,0.01,VWS V13.00,2013-04-18 14:22:00,
2013-04-18 10:27:00,69.4,63.3,30.24,ESE,105,5.0,9.0,81,0.00,,SKC,0.01,VWS V13.00,2013-04-18 14:27:00,
2013-04-18 10:32:00,69.8,64.1,30.24,ESE,117,7.0,9.0,82,0.00,,SKC,0.01,VWS V13.00,2013-04-18 14:32:00,
2013-04-18 10:37:00,69.9,63.8,30.23,SE,125,11.0,11.0,81,0.00,,SKC,0.01,VWS V13.00,2013-04-18 14:37:00,
2013-04-18 10:42:00,69.8,63.7,30.23,ESE,117,8.0,11.0,81,0.00,,SKC,0.01,VWS V13.00,2013-04-18 14:42:00,
2013-04-18 10:47:00,69.9,63.8,30.24,SE,134,6.0,11.0,81,0.00,,SKC,0.01,VWS V13.00,2013-04-18 14:47:00,
2013-04-18 10:52:00,70.4,64.3,30.24,ESE,110,5.0,9.0,81,0.00,,SKC,0.01,VWS V13.00,2013-04-18 14:52:00,
2013-04-18 10:57:00,71.0,64.9,30.24,ESE,116,8.0,9.0,81,0.00,,SKC,0.01,VWS V13.00,2013-04-18 14:57:00,
2013-04-18 11:02:00,70.9,64.4,30.24,ESE,121,6.0,11.0,80,0.00,,SKC,0.01,VWS V13.00,2013-04-18 15:02:00,
2013-04-18 11:07:00,70.8,64.7,30.24,ESE,110,7.0,12.0,81,0.00,,SKC,0.01,VWS V13.00,2013-04-18 15:07:00,
2013-04-18 11:12:00,70.9,64.4,30.24,SE,145,8.0,9.0,80,0.00,,SKC,0.01,VWS V13.00,2013-04-18 15:12:00,
2013-04-18 11:17:00,71.0,64.5,30.24,ESE,112,9.0,11.0,80,0.00,,SKC,0.01,VWS V13.00,2013-04-18 15:17:00,
2013-04-18 11:22:00,70.8,64.3,30.24,ESE,115,9.0,12.0,80,0.00,,SKC,0.01,VWS V13.00,2013-04-18 15:22:00,
2013-04-18 11:27:00,70.5,64.0,30.24,SE,136,10.0,11.0,80,0.00,,SKC,0.01,VWS V13.00,2013-04-18 15:27:00,
2013-04-18 11:32:00,70.6,64.1,30.24,SE,125,9.0,11.0,80,0.00,,SKC,0.01,VWS V13.00,2013-04-18 15:32:00,
2013-04-18 11:37:00,70.5,64.0,30.24,ESE,123,8.0,9.0,80,0.00,,SKC,0.01,VWS V13.00,2013-04-18 15:37:00,
2013-04-18 11:42:00,70.5,64.0,30.24,SE,133,7.0,10.0,80,0.00,,SKC,0.01,VWS V13.00,2013-04-18 15:42:00,
2013-04-18 11:47:00,70.9,64.4,30.24,SE,136,11.0,11.0,80,0.00,,SKC,0.01,VWS V13.00,2013-04-18 15:47:00,
2013-04-18 11:52:00,71.3,64.8,30.24,SE,133,9.0,10.0,80,0.00,,SKC,0.01,VWS V13.00,2013-04-18 15:52:00,
2013-04-18 11:57:00,71.6,65.1,30.23,ESE,115,12.0,12.0,80,0.00,,SKC,0.01,VWS V13.00,2013-04-18 15:57:00,
2013-04-18 12:02:00,71.7,65.2,30.23,SE,145,6.0,11.0,80,0.00,,SKC,0.01,VWS V13.00,2013-04-18 16:02:00,
2013-04-18 12:07:00,71.5,64.7,30.23,ESE,122,4.0,9.0,79,0.00,,SKC,0.01,VWS V13.00,2013-04-18 16:07:00,
2013-04-18 12:12:00,71.4,64.9,30.23,SE,140,5.0,7.0,80,0.00,,SKC,0.01,VWS V13.00,2013-04-18 16:12:00,
2013-04-18 12:17:00,71.5,64.7,30.23,NE,55,4.0,9.0,79,0.00,,SKC,0.01,VWS V13.00,2013-04-18 16:17:00,
2013-04-18 12:22:00,71.3,64.5,30.23,ESE,119,6.0,8.0,79,0.00,,SKC,0.01,VWS V13.00,2013-04-18 16:22:00,
2013-04-18 12:27:00,71.3,64.5,30.23,ESE,121,4.0,7.0,79,0.00,,SKC,0.01,VWS V13.00,2013-04-18 16:27:00,
2013-04-18 12:32:00,71.3,64.5,30.23,ESE,109,5.0,8.0,79,0.00,,SKC,0.01,VWS V13.00,2013-04-18 16:32:00,
2013-04-18 12:37:00,71.5,64.7,30.23,ESE,121,4.0,7.0,79,0.00,,SKC,0.01,VWS V13.00,2013-04-18 16:37:00,
2013-04-18 12:42:00,71.4,64.6,30.23,ESE,121,7.0,7.0,79,0.00,,SKC,0.01,VWS V13.00,2013-04-18 16:42:00,
2013-04-18 12:47:00,71.3,64.5,30.23,ESE,108,4.0,8.0,79,0.00,,SKC,0.01,VWS V13.00,2013-04-18 16:47:00,
2013-04-18 12:52:00,71.2,64.4,30.23,East,96,7.0,7.0,79,0.00,,SKC,0.01,VWS V13.00,2013-04-18 16:52:00,
2013-04-18 12:57:00,71.1,64.3,30.22,ESE,121,4.0,9.0,79,0.00,,SKC,0.01,VWS V13.00,2013-04-18 16:57:00,
2013-04-18 13:02:00,71.3,64.5,30.22,SE,142,2.0,8.0,79,0.00,,SKC,0.01,VWS V13.00,2013-04-18 17:02:00,
2013-04-18 13:07:00,71.7,64.8,30.22,ESE,113,7.0,9.0,79,0.00,,SKC,0.01,VWS V13.00,2013-04-18 17:07:00,
2013-04-18 13:12:00,72.2,65.3,30.22,ESE,118,7.0,11.0,79,0.00,,SKC,0.01,VWS V13.00,2013-04-18 17:12:00,
2013-04-18 13:17:00,72.5,65.3,30.22,SE,127,4.0,8.0,78,0.00,,SKC,0.01,VWS V13.00,2013-04-18 17:17:00,
2013-04-18 13:22:00,72.4,65.2,30.22,SE,124,6.0,10.0,78,0.00,,SKC,0.01,VWS V13.00,2013-04-18 17:22:00,
2013-04-18 13:27:00,72.2,65.0,30.22,ESE,109,6.0,9.0,78,0.00,,SKC,0.01,VWS V13.00,2013-04-18 17:27:00,
2013-04-18 13:32:00,71.8,64.6,30.22,SE,128,6.0,6.0,78,0.00,,SKC,0.01,VWS V13.00,2013-04-18 17:32:00,
2013-04-18 13:37:00,71.6,64.4,30.22,ESE,121,7.0,7.0,78,0.00,,SKC,0.01,VWS V13.00,2013-04-18 17:37:00,
2013-04-18 13:42:00,71.6,64.4,30.22,East,100,6.0,8.0,78,0.00,,SKC,0.01,VWS V13.00,2013-04-18 17:42:00,
2013-04-18 13:47:00,71.8,64.6,30.21,ESE,112,5.0,7.0,78,0.00,,SKC,0.01,VWS V13.00,2013-04-18 17:47:00,
2013-04-18 13:52:00,72.4,65.2,30.21,East,98,5.0,9.0,78,0.00,,SKC,0.01,VWS V13.00,2013-04-18 17:52:00,
2013-04-18 13:57:00,72.6,65.3,30.21,ESE,105,5.0,8.0,78,0.00,,SKC,0.01,VWS V13.00,2013-04-18 17:57:00,
2013-04-18 14:02:00,72.7,65.4,30.21,SE,143,5.0,7.0,78,0.00,,SKC,0.01,VWS V13.00,2013-04-18 18:02:00,
2013-04-18 14:07:00,72.9,65.7,30.21,ESE,109,11.0,11.0,78,0.00,,SKC,0.01,VWS V13.00,2013-04-18 18:07:00,
2013-04-18 14:12:00,73.3,66.0,30.21,SE,137,6.0,8.0,78,0.00,,SKC,0.01,VWS V13.00,2013-04-18 18:12:00,
2013-04-18 14:17:00,73.6,66.3,30.21,East,97,5.0,7.0,78,0.00,,SKC,0.01,VWS V13.00,2013-04-18 18:17:00,
2013-04-18 14:22:00,74.0,66.7,30.21,SE,127,5.0,9.0,78,0.00,,SKC,0.01,VWS V13.00,2013-04-18 18:22:00,
2013-04-18 14:27:00,74.1,66.4,30.21,ESE,107,6.0,11.0,77,0.00,,SKC,0.01,VWS V13.00,2013-04-18 18:27:00,
2013-04-18 14:32:00,74.1,66.4,30.21,East,91,5.0,7.0,77,0.00,,SKC,0.01,VWS V13.00,2013-04-18 18:32:00,
2013-04-18 14:37:00,73.9,66.2,30.21,ESE,112,6.0,9.0,77,0.00,,SKC,0.01,VWS V13.00,2013-04-18 18:37:00,
2013-04-18 14:42:00,73.5,65.9,30.21,ESE,102,6.0,9.0,77,0.00,,SKC,0.01,VWS V13.00,2013-04-18 18:42:00,
2013-04-18 14:47:00,73.3,65.7,30.21,ESE,109,9.0,11.0,77,0.00,,SKC,0.01,VWS V13.00,2013-04-18 18:47:00,
2013-04-18 14:52:00,73.3,65.7,30.20,ESE,105,8.0,10.0,77,0.00,,SKC,0.01,VWS V13.00,2013-04-18 18:52:00,
2013-04-18 14:57:00,73.4,65.8,30.20,East,101,5.0,8.0,77,0.00,,SKC,0.01,VWS V13.00,2013-04-18 18:57:00,
2013-04-18 15:02:00,73.4,65.8,30.20,East,86,2.0,8.0,77,0.00,,SKC,0.01,VWS V13.00,2013-04-18 19:02:00,
2013-04-18 15:07:00,73.3,65.7,30.19,SE,129,5.0,9.0,77,0.00,,SKC,0.01,VWS V13.00,2013-04-18 19:07:00,
2013-04-18 15:12:00,73.3,65.7,30.19,ESE,111,8.0,8.0,77,0.00,,SKC,0.01,VWS V13.00,2013-04-18 19:12:00,
2013-04-18 15:17:00,73.4,65.8,30.19,SE,136,6.0,7.0,77,0.00,,SKC,0.01,VWS V13.00,2013-04-18 19:17:00,
2013-04-18 15:22:00,73.5,65.9,30.19,East,92,6.0,9.0,77,0.00,,SKC,0.01,VWS V13.00,2013-04-18 19:22:00,
2013-04-18 15:27:00,73.7,66.1,30.19,SE,129,5.0,9.0,77,0.00,,SKC,0.01,VWS V13.00,2013-04-18 19:27:00,
2013-04-18 15:32:00,73.6,65.9,30.18,SE,130,11.0,11.0,77,0.00,,SKC,0.01,VWS V13.00,2013-04-18 19:32:00,
2013-04-18 15:37:00,73.5,65.9,30.18,ESE,116,7.0,8.0,77,0.00,,SKC,0.01,VWS V13.00,2013-04-18 19:37:00,
2013-04-18 15:42:00,73.6,65.9,30.18,ESE,102,9.0,11.0,77,0.00,,SKC,0.01,VWS V13.00,2013-04-18 19:42:00,
2013-04-18 15:47:00,73.4,65.8,30.18,ESE,115,8.0,11.0,77,0.00,,SKC,0.01,VWS V13.00,2013-04-18 19:47:00,
2013-04-18 15:52:00,73.1,65.5,30.18,ESE,113,5.0,7.0,77,0.00,,SKC,0.01,VWS V13.00,2013-04-18 19:52:00,
2013-04-18 15:57:00,73.0,65.4,30.18,East,101,6.0,8.0,77,0.00,,SKC,0.01,VWS V13.00,2013-04-18 19:57:00,
2013-04-18 16:02:00,72.8,65.2,30.18,SE,139,6.0,7.0,77,0.00,,SKC,0.01,VWS V13.00,2013-04-18 20:02:00,
2013-04-18 16:07:00,72.8,65.2,30.18,East,94,9.0,9.0,77,0.00,,SKC,0.01,VWS V13.00,2013-04-18 20:07:00,
2013-04-18 16:12:00,73.1,65.5,30.18,ESE,111,5.0,11.0,77,0.00,,SKC,0.01,VWS V13.00,2013-04-18 20:12:00,
2013-04-18 16:17:00,73.2,65.6,30.18,ESE,120,6.0,8.0,77,0.00,,SKC,0.01,VWS V13.00,2013-04-18 20:17:00,
2013-04-18 16:22:00,73.2,65.6,30.17,ESE,112,4.0,5.0,77,0.00,,SKC,0.01,VWS V13.00,2013-04-18 20:22:00,
2013-04-18 16:27:00,73.1,65.5,30.17,SE,135,7.0,9.0,77,0.00,,SKC,0.01,VWS V13.00,2013-04-18 20:27:00,
2013-04-18 16:32:00,72.9,65.3,30.17,SE,127,8.0,9.0,77,0.00,,SKC,0.01,VWS V13.00,2013-04-18 20:32:00,
2013-04-18 16:37:00,72.5,64.9,30.17,ESE,119,5.0,7.0,77,0.00,,SKC,0.01,VWS V13.00,2013-04-18 20:37:00,
2013-04-18 16:42:00,72.4,64.8,30.17,ESE,115,6.0,6.0,77,0.00,,SKC,0.01,VWS V13.00,2013-04-18 20:42:00,
2013-04-18 16:47:00,72.4,64.8,30.17,ESE,106,6.0,11.0,77,0.00,,SKC,0.01,VWS V13.00,2013-04-18 20:47:00,
2013-04-18 16:52:00,72.3,64.7,30.17,East,99,8.0,12.0,77,0.00,,SKC,0.01,VWS V13.00,2013-04-18 20:52:00,
2013-04-18 16:57:00,72.2,64.6,30.17,East,96,6.0,11.0,77,0.00,,SKC,0.01,VWS V13.00,2013-04-18 20:57:00,
2013-04-18 17:02:00,72.1,64.5,30.16,ESE,102,9.0,9.0,77,0.00,,SKC,0.01,VWS V13.00,2013-04-18 21:02:00,
2013-04-18 17:07:00,72.1,64.5,30.16,East,100,6.0,8.0,77,0.00,,SKC,0.01,VWS V13.00,2013-04-18 21:07:00,
2013-04-18 17:12:00,72.1,64.5,30.16,SE,138,7.0,11.0,77,0.00,,SKC,0.01,VWS V13.00,2013-04-18 21:12:00,
2013-04-18 17:17:00,71.9,64.3,30.16,ENE,72,4.0,8.0,77,0.00,,SKC,0.01,VWS V13.00,2013-04-18 21:17:00,
2013-04-18 17:22:00,71.8,64.2,30.16,East,96,6.0,9.0,77,0.00,,SKC,0.01,VWS V13.00,2013-04-18 21:22:00,
2013-04-18 17:27:00,71.6,64.0,30.16,SE,126,9.0,12.0,77,0.00,,SKC,0.01,VWS V13.00,2013-04-18 21:27:00,
2013-04-18 17:32:00,71.4,63.8,30.16,ESE,117,5.0,9.0,77,0.00,,SKC,0.01,VWS V13.00,2013-04-18 21:32:00,
2013-04-18 17:37:00,71.2,63.6,30.16,SE,126,7.0,12.0,77,0.00,,SKC,0.01,VWS V13.00,2013-04-18 21:37:00,
2013-04-18 17:42:00,71.0,63.4,30.16,ESE,109,8.0,10.0,77,0.00,,SKC,0.01,VWS V13.00,2013-04-18 21:42:00,
2013-04-18 17:47:00,70.7,63.1,30.15,ESE,123,5.0,7.0,77,0.00,,SKC,0.01,VWS V13.00,2013-04-18 21:47:00,
2013-04-18 17:52:00,70.6,63.0,30.15,ESE,110,6.0,11.0,77,0.00,,SKC,0.01,VWS V13.00,2013-04-18 21:52:00,
2013-04-18 17:57:00,70.3,63.1,30.15,SE,133,7.0,7.0,78,0.00,,SKC,0.01,VWS V13.00,2013-04-18 21:57:00,
2013-04-18 18:02:00,70.1,62.9,30.15,SE,130,7.0,11.0,78,0.00,,SKC,0.01,VWS V13.00,2013-04-18 22:02:00,
2013-04-18 18:07:00,69.9,62.7,30.15,ESE,111,6.0,9.0,78,0.00,,SKC,0.01,VWS V13.00,2013-04-18 22:07:00,
2013-04-18 18:12:00,69.9,62.7,30.15,ESE,111,5.0,6.0,78,0.00,,SKC,0.01,VWS V13.00,2013-04-18 22:12:00,
2013-04-18 18:17:00,69.7,62.5,30.15,SE,142,8.0,9.0,78,0.00,,SKC,0.01,VWS V13.00,2013-04-18 22:17:00,
2013-04-18 18:22:00,69.5,62.3,30.15,ESE,113,6.0,9.0,78,0.00,,SKC,0.01,VWS V13.00,2013-04-18 22:22:00,
2013-04-18 18:27:00,69.4,62.2,30.15,SE,132,7.0,10.0,78,0.00,,SKC,0.01,VWS V13.00,2013-04-18 22:27:00,
2013-04-18 18:32:00,69.1,62.0,30.15,ESE,115,8.0,11.0,78,0.00,,SKC,0.01,VWS V13.00,2013-04-18 22:32:00,
2013-04-18 18:37:00,68.9,61.8,30.14,ESE,117,7.0,9.0,78,0.00,,SKC,0.01,VWS V13.00,2013-04-18 22:37:00,
2013-04-18 18:42:00,68.6,61.5,30.14,SE,138,6.0,9.0,78,0.00,,SKC,0.01,VWS V13.00,2013-04-18 22:42:00,
2013-04-18 18:47:00,68.4,61.3,30.14,ESE,112,5.0,8.0,78,0.00,,SKC,0.01,VWS V13.00,2013-04-18 22:47:00,
2013-04-18 18:52:00,68.3,61.2,30.14,SE,133,6.0,8.0,78,0.00,,SKC,0.01,VWS V13.00,2013-04-18 22:52:00,
2013-04-18 18:57:00,68.0,60.9,30.14,SE,142,6.0,7.0,78,0.00,,SKC,0.01,VWS V13.00,2013-04-18 22:57:00,
2013-04-18 19:02:00,67.9,60.8,30.14,ESE,122,4.0,7.0,78,0.00,,SKC,0.01,VWS V13.00,2013-04-18 23:02:00,
2013-04-18 19:07:00,67.8,61.1,30.14,SSE,161,5.0,6.0,79,0.00,,SKC,0.01,VWS V13.00,2013-04-18 23:07:00,
2013-04-18 19:12:00,67.7,61.0,30.14,SE,128,5.0,8.0,79,0.00,,SKC,0.01,VWS V13.00,2013-04-18 23:12:00,
2013-04-18 19:17:00,67.6,60.9,30.13,SE,145,4.0,6.0,79,0.00,,SKC,0.01,VWS V13.00,2013-04-18 23:17:00,
2013-04-18 19:22:00,67.4,60.7,30.14,SE,146,7.0,7.0,79,0.00,,SKC,0.01,VWS V13.00,2013-04-18 23:22:00,
2013-04-18 19:27:00,67.4,60.7,30.13,SE,131,5.0,5.0,79,0.00,,SKC,0.01,VWS V13.00,2013-04-18 23:27:00,
2013-04-18 19:32:00,67.3,60.6,30.14,SE,125,6.0,7.0,79,0.00,,SKC,0.01,VWS V13.00,2013-04-18 23:32:00,
2013-04-18 19:37:00,67.3,60.6,30.14,SE,132,6.0,7.0,79,0.00,,SKC,0.01,VWS V13.00,2013-04-18 23:37:00,
2013-04-18 19:42:00,67.3,60.6,30.13,SE,138,5.0,5.0,79,0.00,,SKC,0.01,VWS V13.00,2013-04-18 23:42:00,
2013-04-18 19:47:00,67.2,60.5,30.14,SE,137,5.0,9.0,79,0.00,,SKC,0.01,VWS V13.00,2013-04-18 23:47:00,
2013-04-18 19:52:00,67.2,60.5,30.13,ESE,111,6.0,7.0,79,0.00,,SKC,0.01,VWS V13.00,2013-04-18 23:52:00,
2013-04-18 19:57:00,67.2,60.5,30.13,ESE,115,2.0,6.0,79,0.00,,SKC,0.01,VWS V13.00,2013-04-18 23:57:00,
2013-04-18 20:02:00,67.1,60.4,30.14,SE,128,2.0,5.0,79,0.00,,SKC,0.01,VWS V13.00,2013-04-19 00:02:00,
2013-04-18 20:07:00,67.1,60.4,30.14,SE,126,6.0,8.0,79,0.00,,SKC,0.01,VWS V13.00,2013-04-19 00:07:00,
2013-04-18 20:12:00,67.1,60.4,30.13,SE,126,2.0,5.0,79,0.00,,SKC,0.01,VWS V13.00,2013-04-19 00:12:00,
2013-04-18 20:17:00,67.0,60.3,30.14,ESE,123,5.0,6.0,79,0.00,,SKC,0.01,VWS V13.00,2013-04-19 00:17:00,
2013-04-18 20:22:00,67.0,60.3,30.14,ESE,117,2.0,4.0,79,0.00,,SKC,0.01,VWS V13.00,2013-04-19 00:22:00,
2013-04-18 20:27:00,66.9,60.5,30.14,SE,134,6.0,6.0,80,0.00,,SKC,0.01,VWS V13.00,2013-04-19 00:27:00,
2013-04-18 20:32:00,66.9,60.5,30.13,ESE,117,7.0,7.0,80,0.00,,SKC,0.01,VWS V13.00,2013-04-19 00:32:00,
2013-04-18 20:37:00,66.9,60.5,30.13,SE,126,6.0,7.0,80,0.00,,SKC,0.01,VWS V13.00,2013-04-19 00:37:00,
2013-04-18 20:42:00,66.9,60.5,30.13,SE,127,7.0,8.0,80,0.00,,SKC,0.01,VWS V13.00,2013-04-19 00:42:00,
2013-04-18 20:47:00,66.8,60.4,30.14,SE,133,6.0,7.0,80,0.00,,SKC,0.01,VWS V13.00,2013-04-19 00:47:00,
2013-04-18 20:52:00,66.9,60.5,30.14,SE,138,4.0,6.0,80,0.00,,SKC,0.01,VWS V13.00,2013-04-19 00:52:00,
2013-04-18 20:57:00,66.9,60.5,30.14,ESE,117,6.0,7.0,80,0.00,,SKC,0.01,VWS V13.00,2013-04-19 00:57:00,
2013-04-18 21:02:00,66.9,60.5,30.14,SE,144,4.0,5.0,80,0.00,,SKC,0.01,VWS V13.00,2013-04-19 01:02:00,
2013-04-18 21:07:00,66.8,60.4,30.14,SSE,149,6.0,9.0,80,0.00,,SKC,0.01,VWS V13.00,2013-04-19 01:07:00,
2013-04-18 21:12:00,66.8,60.4,30.14,SE,129,1.0,6.0,80,0.00,,SKC,0.01,VWS V13.00,2013-04-19 01:12:00,
2013-04-18 21:17:00,66.8,60.4,30.14,SE,128,5.0,6.0,80,0.00,,SKC,0.01,VWS V13.00,2013-04-19 01:17:00,
2013-04-18 21:22:00,66.8,60.4,30.14,SE,127,5.0,6.0,80,0.00,,SKC,0.01,VWS V13.00,2013-04-19 01:22:00,
2013-04-18 21:27:00,66.8,60.4,30.14,SE,130,4.0,7.0,80,0.00,,SKC,0.01,VWS V13.00,2013-04-19 01:27:00,
2013-04-18 21:32:00,66.8,60.4,30.14,ESE,108,4.0,6.0,80,0.00,,SKC,0.01,VWS V13.00,2013-04-19 01:32:00,
2013-04-18 21:37:00,66.8,60.4,30.14,ESE,117,2.0,5.0,80,0.00,,SKC,0.01,VWS V13.00,2013-04-19 01:37:00,
2013-04-18 21:42:00,66.8,60.4,30.14,SE,141,2.0,5.0,80,0.00,,SKC,0.01,VWS V13.00,2013-04-19 01:42:00,
2013-04-18 21:47:00,66.8,60.4,30.14,ESE,119,6.0,6.0,80,0.00,,SKC,0.01,VWS V13.00,2013-04-19 01:47:00,
2013-04-18 21:52:00,66.8,60.4,30.14,ESE,123,4.0,7.0,80,0.00,,SKC,0.01,VWS V13.00,2013-04-19 01:52:00,
2013-04-18 21:57:00,66.8,60.4,30.14,ESE,108,5.0,5.0,80,0.00,,SKC,0.01,VWS V13.00,2013-04-19 01:57:00,
2013-04-18 22:02:00,66.9,60.5,30.14,ESE,117,4.0,6.0,80,0.00,,SKC,0.01,VWS V13.00,2013-04-19 02:02:00,
2013-04-18 22:07:00,66.9,60.5,30.14,East,101,4.0,6.0,80,0.00,,SKC,0.01,VWS V13.00,2013-04-19 02:07:00,
2013-04-18 22:12:00,66.9,60.5,30.14,SE,131,4.0,7.0,80,0.00,,SKC,0.01,VWS V13.00,2013-04-19 02:12:00,
2013-04-18 22:17:00,66.9,60.5,30.14,SE,124,4.0,4.0,80,0.00,,SKC,0.01,VWS V13.00,2013-04-19 02:17:00,
2013-04-18 22:22:00,66.9,60.5,30.14,SE,136,5.0,6.0,80,0.00,,SKC,0.01,VWS V13.00,2013-04-19 02:22:00,
2013-04-18 22:27:00,67.0,60.6,30.13,SE,126,4.0,7.0,80,0.00,,SKC,0.01,VWS V13.00,2013-04-19 02:27:00,
2013-04-18 22:32:00,67.0,60.6,30.13,SE,129,4.0,7.0,80,0.00,,SKC,0.01,VWS V13.00,2013-04-19 02:32:00,
2013-04-18 22:37:00,67.1,60.7,30.13,SE,126,7.0,7.0,80,0.00,,SKC,0.01,VWS V13.00,2013-04-19 02:37:00,
2013-04-18 22:42:00,67.1,60.7,30.13,ESE,105,7.0,13.0,80,0.00,,SKC,0.01,VWS V13.00,2013-04-19 02:42:00,
2013-04-18 22:47:00,67.1,60.7,30.12,SSE,157,8.0,8.0,80,0.00,,SKC,0.01,VWS V13.00,2013-04-19 02:47:00,
2013-04-18 22:52:00,67.1,61.1,30.12,ESE,123,8.0,12.0,81,0.00,,SKC,0.01,VWS V13.00,2013-04-19 02:52:00,
2013-04-18 22:57:00,67.1,61.1,30.12,SE,133,9.0,9.0,81,0.00,,SKC,0.01,VWS V13.00,2013-04-19 02:57:00,
2013-04-18 23:02:00,67.2,61.2,30.12,ESE,115,7.0,8.0,81,0.00,,SKC,0.01,VWS V13.00,2013-04-19 03:02:00,
2013-04-18 23:07:00,67.2,61.2,30.12,ESE,120,7.0,8.0,81,0.00,,SKC,0.01,VWS V13.00,2013-04-19 03:07:00,
2013-04-18 23:12:00,67.2,61.2,30.12,SE,137,2.0,9.0,81,0.00,,SKC,0.01,VWS V13.00,2013-04-19 03:12:00,
2013-04-18 23:17:00,67.2,61.2,30.12,SE,142,4.0,6.0,81,0.00,,SKC,0.01,VWS V13.00,2013-04-19 03:17:00,
2013-04-18 23:22:00,67.2,61.2,30.12,SE,132,6.0,8.0,81,0.00,,SKC,0.01,VWS V13.00,2013-04-19 03:22:00,
2013-04-18 23:27:00,67.3,61.3,30.11,SE,142,4.0,6.0,81,0.00,,SKC,0.01,VWS V13.00,2013-04-19 03:27:00,
2013-04-18 23:32:00,67.4,61.4,30.12,East,101,2.0,7.0,81,0.00,,SKC,0.01,VWS V13.00,2013-04-19 03:32:00,
2013-04-18 23:37:00,67.4,61.4,30.12,SE,132,2.0,5.0,81,0.00,,SKC,0.01,VWS V13.00,2013-04-19 03:37:00,
2013-04-18 23:42:00,67.4,61.4,30.12,SE,128,4.0,5.0,81,0.00,,SKC,0.01,VWS V13.00,2013-04-19 03:42:00,
2013-04-18 23:47:00,67.4,61.4,30.12,ESE,116,4.0,4.0,81,0.00,,SKC,0.01,VWS V13.00,2013-04-19 03:47:00,
2013-04-18 23:52:00,67.4,61.4,30.12,SSE,148,6.0,6.0,81,0.00,,SKC,0.01,VWS V13.00,2013-04-19 03:52:00,
2013-04-18 23:57:00,67.4,61.4,30.12,ESE,119,5.0,5.0,81,0.00,,SKC,0.01,VWS V13.00,2013-04-19 03:57:00,